This demonstration page uses our WeatherBlox Daily Observations layout. Learn more.

Left ArrowRight Arrow

39.52144, -85.77692

Hourly Observations for January 25, 2022

Temp ( °F °C ) Dew Point ( °F °C ) Humidity (%) Winds ( mph kmh ) Pressure ( in mb ) Visibility ( mi km ) Precip ( " mm )
12:53 am 00:53 Cloudy 27 -2.8 18 -7.8 69 69 NW 15 24 29.96 1014 10 16 0.00 0.00
1:53 am 01:53 Cloudy 25 -3.9 17 -8.3 72 72 NW 13 20 29.98 1015 10 16 0.00 0.00
2:53 am 02:53 Cloudy 23 -5 15 -9.4 72 72 NW 13 20 30.01 1016 10 16 0.00 0.00
3:53 am 03:53 Cloudy 22 -5.6 14 -10 71 71 NW 12 19 30.04 1017 10 16 0.00 0.00
4:53 am 04:53 Cloudy 20 -6.7 12 -11.1 71 71 WNW 8 13 30.06 1018 10 16 0.00 0.00
5:15 am 05:15 Partly Cloudy 18 -7.8 11 -11.7 74 74 WNW 9 15 30.12 1020 10 16 0.00 0.00
5:53 am 05:53 Clear 17 -8.3 10 -12.2 74 74 WNW 8 13 30.10 1019 10 16 0.00 0.00
6:53 am 06:53 Clear 14 -10 9 -12.8 80 80 WNW 6 9 30.13 1020 9 14 0.00 0.00
7:53 am 07:53 Clear 13 -10.6 7 -13.9 77 77 NNW 6 9 30.17 1022 10 16 0.00 0.00
8:53 am 08:53 Sunny 16 -8.9 8 -13.3 71 71 NW 7 11 30.20 1023 10 16 0.00 0.00
9:53 am 09:53 Sunny 18 -7.8 8 -13.3 65 65 NNW 9 15 30.22 1024 10 16 0.00 0.00
10:53 am 10:53 Sunny 22 -5.6 10 -12.2 60 60 NNW 7 11 30.26 1025 10 16 0.00 0.00
11:53 am 11:53 Sunny 25 -3.9 10 -12.2 53 53 N 8 13 30.25 1025 10 16 0.00 0.00
12:53 pm 12:53 Sunny 26 -3.3 8 -13.3 46 46 WNW 8 13 30.25 1024 10 16 0.00 0.00
1:53 pm 13:53 Sunny 28 -2.2 7 -13.9 41 41 NNW 12 19 30.24 1024 10 16 0.00 0.00
2:53 pm 14:53 Sunny 28 -2.2 7 -13.9 41 41 WNW 10 17 30.24 1024 10 16 0.00 0.00
3:53 pm 15:53 Sunny 28 -2.2 6 -14.4 39 39 NW 9 15 30.26 1025 10 16 0.00 0.00
4:53 pm 16:53 Sunny 26 -3.3 4 -15.6 38 38 WNW 10 17 30.28 1026 10 16 0.00 0.00
5:53 pm 17:53 Sunny 22 -5.6 3 -16.1 44 44 undefined N/A 30.30 1026 10 16 0.00 0.00
6:53 pm 18:53 Clear 19 -7.2 3 -16.1 49 49 WNW 7 11 30.33 1027 10 16 0.00 0.00
7:53 pm 19:53 Clear 15 -9.4 3 -16.1 59 59 NNW 7 11 30.36 1028 10 16 0.00 0.00
8:53 pm 20:53 Clear 14 -10 4 -15.6 64 64 N 7 11 30.37 1029 10 16 0.00 0.00
9:53 pm 21:53 Clear 13 -10.6 3 -16.1 64 64 NNW 9 15 30.39 1029 10 16 0.00 0.00
10:53 pm 22:53 Clear 13 -10.6 1 -17.2 59 59 NW 9 15 30.41 1030 10 16 0.00 0.00
11:53 pm 23:53 Clear 11 -11.7 -1 -18.3 58 58 NNW 9 15 30.42 1030 10 16 0.00 0.00

Powered by AerisWeather